Regional Weather Roundup
Issued by NWS

Home | Current Version | Previous Version | Text Only | Print | Product List | Glossary Off
Versions: 1 2 3 4 5 6 7 8 9 10 11 12 13 14 15 16 17 18 19 20 21 22 23 24 25 26 27 28 29 30 31 32 33 34 35 36 37 38 39 40 41 42 43 44 45 46 47 48 49 50

000
ASUS43 KMKX 230911
RWRWI

WISCONSIN REGIONAL WEATHER ROUNDUP
NATIONAL WEATHER SERVICE MILWAUKEE/SULLIVAN WI
400 AM CDT SAT SEP 23 2017

NOTE: "FAIR" INDICATES FEW OR NO CLOUDS BELOW 12,000 FEET WITH NO
SIGNIFICANT WEATHER AND/OR OBSTRUCTIONS TO VISIBILITY.

WIZ001-002-006>008-014>016-023>028-231000-
NORTHWEST WISCONSIN

CITY           SKY/WX    TMP DP  RH WIND       PRES   REMARKS
SUPERIOR ARPT  CLOUDY    62  62  99 CALM      29.84R
ASHLAND        CLOUDY    76  67  73 S17G24    29.85S
HAYWARD        PTCLDY    74  66  76 S7        29.91S
SIREN          PTCLDY    75  66  71 S6        29.88S
CUMBERLAND     MOCLDY    70  64  83 S7        29.92R
RICE LAKE      MOCLDY    73  65  78 SE8       29.94R
CHETEK           N/A     70  67  89 SE5       29.93R
LADYSMITH      CLOUDY    71  66  84 SE5       29.97R
EAU CLAIRE     CLEAR     70  65  84 S6        29.93R
MENOMONIE      CLEAR     73  65  77 S7        29.93R
NEW RICHMOND   CLOUDY    75  65  70 S9        29.90R
OSCEOLA        CLOUDY    77  66  70 S7        29.91R
$$

WIZ003>005-009-010-017-018-231000-
NORTH CENTRAL WISCONSIN

CITY           SKY/WX    TMP DP  RH WIND       PRES   REMARKS
MANITOWISH WTR PTCLDY    64  64 100 S6        29.97S
ARBOR VITAE    CLOUDY    71  68  89 S6        29.99R
WOODRUFF       CLOUDY    71  68  89 S6        29.99R
RHINELANDER    CLEAR     71  66  84 SW7       30.01R
EAGLE RIVER    PTCLDY    63  63 100 CALM      30.00R FOG
LAND O LAKES   CLEAR     64  64  99 CALM      30.00S
PHILLIPS       CLOUDY    71  67  89 SW5       29.96S
TOMAHAWK       CLEAR     64  62  94 CALM      30.01R
MEDFORD        PTCLDY    64  63  95 CALM      29.99R
MERRILL        CLEAR     70  66  87 S5        30.00R
$$

WIZ029-030-035-036-043>047-231000-
CENTRAL WISCONSIN

CITY           SKY/WX    TMP DP  RH WIND       PRES   REMARKS
WAUSAU         CLEAR     70  64  81 CALM      29.98R
MOSINEE        CLEAR     64  63  94 S7        30.01R
MARSHFIELD     MOCLDY    69  63  81 S6        29.98R
STEVENS POINT  CLEAR     69  64  81 S6        30.01R
WAUPACA        CLEAR     66  65  96 CALM      30.01R
WAUTOMA        CLEAR     62  62 100 CALM      30.01R
WISC RAPIDS    CLEAR     71  64  78 S6        30.00R
CAMP DOUGLAS   PTCLDY    65  63  94 E3        29.99R
$$

WIZ011>013-019>022-031-037>040-048>050-231000-
NORTHEAST WISCONSIN

CITY           SKY/WX    TMP DP  RH WIND       PRES   REMARKS
ANTIGO         CLEAR     64  63  94 S6        30.02S
SHAWANO        CLEAR     69  65  86 CALM      29.99S
OCONTO         CLEAR     67  64  87 CALM      29.99R
STURGEON BAY   CLEAR     73  64  73 S7        30.00R
GREEN BAY      CLEAR     69  66  90 S6        30.00R
MANITOWOC      CLEAR     73  65  75 SW3       30.01R
APPLETON       CLEAR     70  59  68 S7        30.00R
CLINTONVILLE   CLEAR     70  63  78 CALM      30.00R
OSHKOSH        CLEAR     72  64  76 S9        30.00S
$$

WIZ032>034-041-042-053>061-231000-
SOUTHWEST WISCONSIN

CITY           SKY/WX    TMP DP  RH WIND       PRES   REMARKS
LA CROSSE      CLEAR     76  67  73 S8        29.94R
SPARTA         CLEAR     75  64  69 S9        29.97S
VIROQUA        CLEAR     72  65  80 S8        30.00S
BOSCOBEL       PTCLDY    72  64  76 S3        29.99R
PRAIRIE DU CHI CLEAR     73  62  68 E5        29.98S
PLATTEVILLE    CLEAR     70  66  87 S6        30.02R
$$

WIZ056-057-062-063-064-067-068-231000-
SOUTH CENTRAL WISCONSIN

CITY           SKY/WX    TMP DP  RH WIND       PRES   REMARKS
REEDSBURG      CLEAR     72  64  77 S5        29.99S
BARABOO/DELLS  CLEAR     71  62  73 S6        30.00S
LONE ROCK      CLEAR     65  63  93 CALM      30.00R
MINERAL POINT  CLEAR     70  66  88 SE5       30.02S
MADISON        CLEAR     67  65  93 CALM      30.02R
MIDDLETON      CLEAR     72  63  73 CALM      30.02S
WATERTOWN      CLEAR     66  66 100 CALM      30.03R
MONROE         CLEAR     68  63  83 S8        30.03R
JANESVILLE     CLEAR     68  63  83 SE3       30.02R
$$

WIZ051-052-058>065-066-070>072-231000-
SOUTHEAST WISCONSIN

CITY           SKY/WX    TMP DP  RH WIND       PRES   REMARKS
MILWAUKEE      CLEAR     75  67  76 SW7       30.02S
WAUKESHA       CLEAR     70  63  78 S5        30.05R
MILWAUKEE/TIMM CLEAR     68  61  77 CALM      30.04R
RACINE         CLEAR     73  67  81 S5        30.04R
BURLINGTON     CLEAR     62  62 100 CALM      30.04R FOG
KENOSHA        CLEAR     70  65  84 CALM      30.04R
FOND DU LAC    CLEAR     69  62  78 S6        30.02R
SHEBOYGAN      CLEAR     68  66  93 SW6       30.02R
WEST BEND        N/A     66  64  94 CALM      30.03S
JUNEAU         CLEAR     68  63  83 CALM      30.04R
$$

LSZ147-162-231000-
LAKE SUPERIOR

STATION/POSITION TIME  TEMP    WIND        PRES    WAVE
                       AIR SEA DIR/SP/G            HT/PER
                 (UTC) (F)     (DEG/KT/KT) (MB)    (FT/S)
W MID LAKE BUOY  0850   63 54  230/ 14/ 14 1009.8R   2/ 5
DEVILS ISLAND    0900   70     290/  4/  5 1009.9R
SAXON HARBOR     0840   80     200/ 18/ 23 1010.2S
$$

LMZ867-665-643>646-231000-
LAKE MICHIGAN

STATION/POSITION TIME  TEMP    WIND        PRES    WAVE
                       AIR SEA DIR/SP/G            HT/PER
                 (UTC) (F)     (DEG/KT/KT) (MB)    (FT/S)
S GREEN BAY BUOY 0800   68 67  190/  4/  6 1014.9
N MID LAKE BUOY  0850   69 66  190/ 14/ 14 1015.8R   2/ 4
NORTHPORT PIER   0840   67        CALM     1014.9S
KEWAUNEE LAKESHO 0842   74     210/  3/  5 1015.0R
SHEBOYGAN LAKESH 0900   75     230/  7/  8 1015.8R
PORT WASHINGTON  0830   75     270/  4/  6 1017.3R
ATWATER BUOY     0839   72 65  210/  4/  6 1016.9R
MILWAUKEE LAKESH 0850   78     240/  8/  9   N/A
S MID LAKE BUOY  0850   73 70  180/  8/ 10 1016.7R   0
KENOSHA   LAKESH 0900   74     220/  3/  5 1016.3
$$

TC  - TEMPERATURE IN CELSIUS
VSB - VISIBILITY IN STATUTE MILES
WCI - WIND CHILL INDEX
HX  - HEAT INDEX




USA.gov is the U.S. government's official web portal to all federal, state and local government web resources and services.